Time,TemperatureF,DewpointF,PressureIn,WindDirection,WindDirectionDegrees,WindSpeedMPH,WindSpeedGustMPH,Humidity,HourlyPrecipIn,Conditions,Clouds,dailyrainin,SoftwareType,DateUTC
2013-05-28 00:01:00,52.0,51.0,30.10,SSE,156,0.0,0.0,97,0.00,,,-99.99,,2013-05-28 07:01:00,
2013-05-28 00:11:00,52.0,51.0,30.10,SSE,156,0.0,0.0,97,0.00,,,-99.99,,2013-05-28 07:11:00,
2013-05-28 00:21:00,52.0,51.0,30.09,SW,223,0.0,3.0,97,0.00,,,-99.99,,2013-05-28 07:21:00,
2013-05-28 00:31:00,52.0,51.0,30.09,SW,223,0.0,1.0,97,0.00,,,-99.99,,2013-05-28 07:31:00,
2013-05-28 00:41:00,52.0,51.0,30.09,SW,223,0.0,1.0,97,0.00,,,-99.99,,2013-05-28 07:41:00,
2013-05-28 00:52:00,51.0,50.0,30.09,SW,225,1.0,3.0,97,0.00,,,-99.99,,2013-05-28 07:52:00,
2013-05-28 01:01:00,51.0,50.0,30.09,SW,226,0.0,2.0,97,0.00,,,-99.99,,2013-05-28 08:01:00,
2013-05-28 01:11:00,51.0,50.0,30.09,SW,226,0.0,2.0,97,0.00,,,-99.99,,2013-05-28 08:11:00,
2013-05-28 01:21:00,51.0,50.0,30.08,SSE,167,0.0,1.0,97,0.00,,,-99.99,,2013-05-28 08:21:00,
2013-05-28 01:32:00,51.0,50.0,30.08,SSE,167,0.0,1.0,97,0.00,,,-99.99,,2013-05-28 08:32:00,
2013-05-28 01:41:00,51.0,50.0,30.08,SSE,167,0.0,1.0,97,0.00,,,-99.99,,2013-05-28 08:41:00,
2013-05-28 01:52:00,51.0,50.0,30.08,SW,232,0.0,4.0,97,-99.99,,,-99.99,,2013-05-28 08:52:00,
2013-05-28 02:01:00,51.0,50.0,30.08,South,188,0.0,3.0,97,-99.99,,,-99.99,,2013-05-28 09:01:00,
2013-05-28 02:11:00,51.0,50.0,30.08,South,188,0.0,3.0,97,-99.99,,,-99.99,,2013-05-28 09:11:00,
2013-05-28 02:21:00,51.0,50.0,30.09,South,188,0.0,0.0,97,-99.99,,,-99.99,,2013-05-28 09:21:00,
2013-05-28 02:33:00,51.0,50.0,30.09,South,188,0.0,1.0,97,-99.99,,,-99.99,,2013-05-28 09:33:00,
2013-05-28 02:42:00,51.0,50.0,30.09,South,188,0.0,1.0,97,-99.99,,,-99.99,,2013-05-28 09:42:00,
2013-05-28 02:53:00,51.0,50.0,30.08,South,183,0.0,1.0,97,-99.99,,,-99.99,,2013-05-28 09:53:00,
2013-05-28 03:02:00,51.0,50.0,30.08,South,183,0.0,1.0,97,-99.99,,,-99.99,,2013-05-28 10:02:00,
2013-05-28 03:12:00,51.0,50.0,30.08,South,183,0.0,1.0,97,-99.99,,,-99.99,,2013-05-28 10:12:00,
2013-05-28 03:22:00,51.0,50.0,30.07,South,183,0.0,-999.0,97,-99.99,,,-99.99,,2013-05-28 10:22:00,
2013-05-28 03:32:00,51.0,50.0,30.07,WSW,237,0.0,-999.0,97,-99.99,,,-99.99,,2013-05-28 10:32:00,
2013-05-28 03:42:00,51.0,50.0,30.07,WSW,237,0.0,-999.0,97,-99.99,,,-99.99,,2013-05-28 10:42:00,
2013-05-28 03:53:00,51.0,50.0,30.07,SW,236,0.0,-999.0,97,-99.99,,,-99.99,,2013-05-28 10:53:00,
2013-05-28 04:02:00,51.0,50.0,30.07,SSE,159,0.0,-999.0,97,-99.99,,,-99.99,,2013-05-28 11:02:00,
2013-05-28 04:11:00,51.0,50.0,30.07,SSE,159,0.0,-999.0,97,-99.99,,,-99.99,,2013-05-28 11:11:00,
2013-05-28 04:22:00,51.0,50.0,30.07,SW,215,1.0,-999.0,97,-99.99,,,-99.99,,2013-05-28 11:22:00,
2013-05-28 04:31:00,51.0,50.0,30.07,SSW,213,0.0,-999.0,97,-99.99,,,-99.99,,2013-05-28 11:31:00,
2013-05-28 04:41:00,51.0,50.0,30.07,SSW,213,0.0,-999.0,97,-99.99,,,-99.99,,2013-05-28 11:41:00,
2013-05-28 04:52:00,50.0,49.0,30.07,SE,130,0.0,-999.0,97,-99.99,,,-99.99,,2013-05-28 11:52:00,
2013-05-28 05:01:00,50.0,49.0,30.07,East,101,0.0,-999.0,97,-99.99,,,-99.99,,2013-05-28 12:01:00,
2013-05-28 05:11:00,50.0,49.0,30.07,East,101,0.0,-999.0,97,-99.99,,,-99.99,,2013-05-28 12:11:00,
2013-05-28 05:21:00,50.0,49.0,30.08,ESE,110,0.0,-999.0,97,-99.99,,,-99.99,,2013-05-28 12:21:00,
2013-05-28 05:31:00,50.0,49.0,30.08,ESE,110,0.0,-999.0,97,-99.99,,,-99.99,,2013-05-28 12:31:00,
2013-05-28 05:42:00,50.0,49.0,30.08,ESE,110,0.0,-999.0,97,-99.99,,,-99.99,,2013-05-28 12:42:00,
2013-05-28 05:52:00,50.0,49.0,30.06,ESE,110,0.0,-999.0,97,-99.99,,,-99.99,,2013-05-28 12:52:00,
2013-05-28 06:01:00,50.0,49.0,30.06,ESE,110,0.0,-999.0,97,-99.99,,,-99.99,,2013-05-28 13:01:00,
2013-05-28 06:11:00,50.0,49.0,30.06,ESE,110,0.0,-999.0,97,-99.99,,,-99.99,,2013-05-28 13:11:00,
2013-05-28 06:21:00,50.0,49.0,30.06,ESE,103,0.0,-999.0,97,-99.99,,,-99.99,,2013-05-28 13:21:00,
2013-05-28 06:32:00,50.0,49.0,30.07,ESE,103,0.0,-999.0,97,-99.99,,,-99.99,,2013-05-28 13:32:00,
2013-05-28 06:42:00,50.0,49.0,30.07,ESE,103,0.0,-999.0,97,-99.99,,,-99.99,,2013-05-28 13:42:00,
2013-05-28 06:52:00,50.0,49.0,30.08,SE,124,0.0,-999.0,97,-99.99,,,-99.99,,2013-05-28 13:52:00,
2013-05-28 07:01:00,50.0,49.0,30.08,NE,41,0.0,-999.0,97,-99.99,,,-99.99,,2013-05-28 14:01:00,
2013-05-28 07:11:00,50.0,49.0,30.08,NE,41,0.0,-999.0,97,-99.99,,,-99.99,,2013-05-28 14:11:00,
2013-05-28 07:21:00,50.0,49.0,30.07,NE,39,0.0,-999.0,98,-99.99,,,-99.99,,2013-05-28 14:21:00,
2013-05-28 07:32:00,50.0,49.0,30.07,NE,39,0.0,-999.0,98,-99.99,,,-99.99,,2013-05-28 14:32:00,
2013-05-28 07:41:00,50.0,49.0,30.07,NE,39,0.0,-999.0,98,-99.99,,,-99.99,,2013-05-28 14:41:00,
2013-05-28 07:52:00,50.0,49.0,30.07,SW,220,0.0,-999.0,98,-99.99,,,-99.99,,2013-05-28 14:52:00,
2013-05-28 08:01:00,50.0,49.0,30.07,SW,220,0.0,-999.0,98,-99.99,,,-99.99,,2013-05-28 15:01:00,
2013-05-28 08:11:00,50.0,49.0,30.07,SW,220,0.0,-999.0,98,-99.99,,,-99.99,,2013-05-28 15:11:00,
2013-05-28 08:21:00,51.0,50.0,30.08,North,5,0.0,-999.0,98,-99.99,,,-99.99,,2013-05-28 15:21:00,
2013-05-28 08:32:00,51.0,50.0,30.08,North,5,0.0,-999.0,98,-99.99,,,-99.99,,2013-05-28 15:32:00,
2013-05-28 08:43:00,51.0,50.0,30.08,North,5,0.0,-999.0,98,-99.99,,,-99.99,,2013-05-28 15:43:00,
2013-05-28 08:53:00,51.0,50.0,30.09,WNW,299,0.0,-999.0,98,-99.99,,,-99.99,,2013-05-28 15:53:00,
2013-05-28 09:02:00,51.0,50.0,30.09,WNW,300,0.0,-999.0,98,-99.99,,,-99.99,,2013-05-28 16:02:00,
2013-05-28 09:12:00,51.0,50.0,30.09,WNW,300,0.0,-999.0,98,-99.99,,,-99.99,,2013-05-28 16:12:00,
2013-05-28 09:22:00,51.0,50.0,30.10,WNW,300,0.0,-999.0,98,-99.99,,,-99.99,,2013-05-28 16:22:00,
2013-05-28 09:32:00,51.0,50.0,30.10,East,82,0.0,-999.0,98,-99.99,,,-99.99,,2013-05-28 16:32:00,
2013-05-28 09:42:00,51.0,50.0,30.10,East,82,0.0,-999.0,98,-99.99,,,-99.99,,2013-05-28 16:42:00,
2013-05-28 09:52:00,52.0,51.0,30.10,NE,39,0.0,-999.0,98,-99.99,,,-99.99,,2013-05-28 16:52:00,
2013-05-28 10:02:00,52.0,51.0,30.11,NE,39,0.0,-999.0,98,-99.99,,,-99.99,,2013-05-28 17:02:00,
2013-05-28 10:11:00,52.0,51.0,30.11,NE,39,0.0,-999.0,98,-99.99,,,-99.99,,2013-05-28 17:11:00,
2013-05-28 10:22:00,52.0,51.0,30.11,NE,39,0.0,-999.0,98,-99.99,,,-99.99,,2013-05-28 17:22:00,
2013-05-28 10:31:00,52.0,51.0,30.10,NE,39,0.0,-999.0,97,-99.99,,,-99.99,,2013-05-28 17:31:00,
2013-05-28 10:41:00,53.0,52.0,30.10,NE,38,0.0,-999.0,97,-99.99,,,-99.99,,2013-05-28 17:41:00,
2013-05-28 10:52:00,53.0,52.0,30.10,NE,38,0.0,-999.0,97,-99.99,,,-99.99,,2013-05-28 17:52:00,
2013-05-28 11:01:00,54.0,53.0,30.10,NNE,17,0.0,-999.0,97,-99.99,,,-99.99,,2013-05-28 18:01:00,
2013-05-28 11:11:00,54.0,53.0,30.10,NNE,17,0.0,-999.0,97,-99.99,,,-99.99,,2013-05-28 18:11:00,
2013-05-28 11:21:00,56.0,55.0,30.11,NNE,17,0.0,-999.0,97,-99.99,,,-99.99,,2013-05-28 18:21:00,
2013-05-28 11:32:00,56.0,55.0,30.11,NNE,17,0.0,-999.0,96,-99.99,,,-99.99,,2013-05-28 18:32:00,
2013-05-28 11:42:00,56.0,54.0,30.11,NNE,17,0.0,-999.0,94,-99.99,,,-99.99,,2013-05-28 18:42:00,
2013-05-28 11:52:00,56.0,54.0,30.11,NNE,17,0.0,-999.0,94,-99.99,,,-99.99,,2013-05-28 18:52:00,
2013-05-28 12:01:00,57.0,55.0,30.11,NNE,17,0.0,-999.0,94,-99.99,,,-99.99,,2013-05-28 19:01:00,
2013-05-28 12:11:00,57.0,55.0,30.11,NNE,17,0.0,-999.0,94,-99.99,,,-99.99,,2013-05-28 19:11:00,
2013-05-28 12:21:00,57.0,53.0,30.12,NE,34,0.0,-999.0,88,-99.99,,,-99.99,,2013-05-28 19:21:00,
2013-05-28 12:31:00,58.0,54.0,30.12,NNE,29,0.0,-999.0,86,-99.99,,,-99.99,,2013-05-28 19:31:00,
2013-05-28 12:41:00,58.0,54.0,30.12,NNE,29,0.0,-999.0,86,-99.99,,,-99.99,,2013-05-28 19:41:00,
2013-05-28 12:52:00,59.0,54.0,30.11,NNE,25,0.0,-999.0,85,-99.99,,,-99.99,,2013-05-28 19:52:00,
2013-05-28 13:01:00,60.0,54.0,30.11,NE,35,0.0,-999.0,82,-99.99,,,-99.99,,2013-05-28 20:01:00,
2013-05-28 13:11:00,60.0,54.0,30.11,NE,35,0.0,-999.0,82,-99.99,,,-99.99,,2013-05-28 20:11:00,
2013-05-28 13:22:00,60.0,54.0,30.11,ENE,70,0.0,-999.0,82,-99.99,,,-99.99,,2013-05-28 20:22:00,
2013-05-28 13:32:00,60.0,56.0,30.11,NE,47,0.0,-999.0,87,-99.99,,,-99.99,,2013-05-28 20:32:00,
2013-05-28 13:42:00,60.0,56.0,30.11,NE,47,0.0,-999.0,87,-99.99,,,-99.99,,2013-05-28 20:42:00,
2013-05-28 13:52:00,60.0,54.0,30.11,SSW,211,0.0,-999.0,81,-99.99,,,-99.99,,2013-05-28 20:52:00,
2013-05-28 14:01:00,61.0,54.0,30.11,WSW,256,0.0,-999.0,79,-99.99,,,-99.99,,2013-05-28 21:01:00,
2013-05-28 14:11:00,60.0,54.0,30.13,NNE,17,0.0,-999.0,81,-99.99,,,-99.99,,2013-05-28 21:11:00,
2013-05-28 14:21:00,60.0,54.0,30.13,NNE,17,0.0,-999.0,81,-99.99,,,-99.99,,2013-05-28 21:21:00,
2013-05-28 14:32:00,61.0,54.0,30.13,NNE,24,0.0,-999.0,79,-99.99,,,-99.99,,2013-05-28 21:32:00,
2013-05-28 14:43:00,62.0,56.0,30.11,WSW,242,1.0,-999.0,80,-99.99,,,-99.99,,2013-05-28 21:43:00,
2013-05-28 14:53:00,62.0,56.0,30.11,WSW,242,1.0,-999.0,80,-99.99,,,-99.99,,2013-05-28 21:53:00,
2013-05-28 15:02:00,62.0,54.0,30.11,NE,47,0.0,-999.0,74,-99.99,,,-99.99,,2013-05-28 22:02:00,
2013-05-28 15:12:00,62.0,52.0,30.10,SSW,196,0.0,-999.0,70,-99.99,,,-99.99,,2013-05-28 22:12:00,
2013-05-28 15:22:00,62.0,52.0,30.10,SSW,196,0.0,-999.0,70,-99.99,,,-99.99,,2013-05-28 22:22:00,
2013-05-28 15:32:00,63.0,54.0,30.10,WSW,240,0.0,-999.0,72,-99.99,,,-99.99,,2013-05-28 22:32:00,
2013-05-28 15:42:00,65.0,55.0,30.10,NE,41,0.0,-999.0,70,-99.99,,,-99.99,,2013-05-28 22:42:00,
2013-05-28 15:52:00,65.0,55.0,30.10,NE,41,0.0,-999.0,70,-99.99,,,-99.99,,2013-05-28 22:52:00,
2013-05-28 16:02:00,65.0,55.0,30.10,NE,36,0.0,-999.0,70,-99.99,,,-99.99,,2013-05-28 23:02:00,
2013-05-28 16:11:00,63.0,53.0,30.10,NE,47,0.0,-999.0,70,-99.99,,,-99.99,,2013-05-28 23:11:00,
2013-05-28 16:21:00,63.0,53.0,30.10,NE,47,0.0,-999.0,70,-99.99,,,-99.99,,2013-05-28 23:21:00,
2013-05-28 16:32:00,63.0,53.0,30.10,SW,221,0.0,-999.0,69,-99.99,,,-99.99,,2013-05-28 23:32:00,
2013-05-28 16:41:00,63.0,53.0,30.10,SW,221,0.0,-999.0,69,-99.99,,,-99.99,,2013-05-28 23:41:00,
2013-05-28 16:52:00,63.0,53.0,30.09,NNE,30,0.0,-999.0,71,-99.99,,,-99.99,,2013-05-28 23:52:00,
2013-05-28 17:01:00,63.0,53.0,30.09,SW,234,0.0,-999.0,71,-99.99,,,-99.99,,2013-05-29 00:01:00,
2013-05-28 17:11:00,63.0,53.0,30.09,SW,234,0.0,-999.0,71,-99.99,,,-99.99,,2013-05-29 00:11:00,
2013-05-28 17:21:00,62.0,54.0,30.10,SSW,200,0.0,-999.0,74,-99.99,,,-99.99,,2013-05-29 00:21:00,
2013-05-28 17:32:00,61.0,52.0,30.10,SSW,196,0.0,-999.0,72,-99.99,,,-99.99,,2013-05-29 00:32:00,
2013-05-28 17:41:00,61.0,52.0,30.10,SSW,196,0.0,-999.0,72,-99.99,,,-99.99,,2013-05-29 00:41:00,
2013-05-28 17:52:00,59.0,50.0,30.09,North,5,0.0,-999.0,72,-99.99,,,-99.99,,2013-05-29 00:52:00,
2013-05-28 18:01:00,58.0,49.0,30.09,NE,53,0.0,-999.0,71,-99.99,,,-99.99,,2013-05-29 01:01:00,
2013-05-28 18:11:00,58.0,49.0,30.09,NE,53,0.0,-999.0,71,-99.99,,,-99.99,,2013-05-29 01:11:00,
2013-05-28 18:21:00,57.0,50.0,30.10,NW,318,0.0,-999.0,77,-99.99,,,-99.99,,2013-05-29 01:21:00,
2013-05-28 18:31:00,56.0,50.0,30.10,West,276,0.0,-999.0,79,-99.99,,,-99.99,,2013-05-29 01:31:00,
2013-05-28 18:41:00,56.0,50.0,30.10,West,276,0.0,-999.0,79,-99.99,,,-99.99,,2013-05-29 01:41:00,
2013-05-28 18:52:00,55.0,50.0,30.08,NE,47,0.0,-999.0,82,-99.99,,,-99.99,,2013-05-29 01:52:00,
2013-05-28 19:02:00,54.0,48.0,30.08,NE,46,0.0,-999.0,81,-99.99,,,-99.99,,2013-05-29 02:02:00,
2013-05-28 19:11:00,53.0,48.0,30.08,East,86,0.0,-999.0,83,-99.99,,,-99.99,,2013-05-29 02:11:00,
2013-05-28 19:21:00,53.0,48.0,30.08,East,86,0.0,-999.0,83,-99.99,,,-99.99,,2013-05-29 02:21:00,
2013-05-28 19:31:00,53.0,47.0,30.08,East,86,0.0,-999.0,81,-99.99,,,-99.99,,2013-05-29 02:31:00,
2013-05-28 19:41:00,52.0,47.0,30.08,NNW,348,0.0,-999.0,82,-99.99,,,-99.99,,2013-05-29 02:41:00,
2013-05-28 19:52:00,52.0,47.0,30.08,NNW,348,0.0,-999.0,82,-99.99,,,-99.99,,2013-05-29 02:52:00,
2013-05-28 20:01:00,52.0,47.0,30.08,West,281,0.0,-999.0,83,-99.99,,,-99.99,,2013-05-29 03:01:00,
2013-05-28 20:11:00,52.0,47.0,30.08,West,281,0.0,-999.0,83,-99.99,,,-99.99,,2013-05-29 03:11:00,
2013-05-28 20:21:00,51.0,46.0,30.09,NNE,29,0.0,-999.0,83,-99.99,,,-99.99,,2013-05-29 03:21:00,
2013-05-28 20:32:00,50.0,45.0,30.09,NNE,29,0.0,-999.0,84,-99.99,,,-99.99,,2013-05-29 03:32:00,
2013-05-28 20:43:00,50.0,45.0,30.09,NNE,29,0.0,-999.0,84,-99.99,,,-99.99,,2013-05-29 03:43:00,
2013-05-28 20:53:00,50.0,46.0,30.07,NNE,29,0.0,-999.0,85,-99.99,,,-99.99,,2013-05-29 03:53:00,
2013-05-28 21:02:00,50.0,46.0,30.07,NNE,29,0.0,-999.0,85,-99.99,,,-99.99,,2013-05-29 04:02:00,
2013-05-28 21:12:00,49.0,45.0,30.07,NNE,29,0.0,-999.0,86,-99.99,,,-99.99,,2013-05-29 04:12:00,
2013-05-28 21:23:00,49.0,45.0,30.07,NNE,29,0.0,-999.0,86,-99.99,,,-99.99,,2013-05-29 04:23:00,
2013-05-28 21:33:00,49.0,46.0,30.07,NNE,29,0.0,-999.0,88,-99.99,,,-99.99,,2013-05-29 04:33:00,
2013-05-28 21:42:00,49.0,46.0,30.07,NNE,29,0.0,-999.0,88,-99.99,,,-99.99,,2013-05-29 04:42:00,
2013-05-28 21:52:00,49.0,46.0,30.07,NNE,30,0.0,-999.0,88,-99.99,,,-99.99,,2013-05-29 04:52:00,
2013-05-28 22:02:00,49.0,46.0,30.07,NNE,29,0.0,-999.0,88,-99.99,,,-99.99,,2013-05-29 05:02:00,
2013-05-28 22:11:00,49.0,46.0,30.07,NNE,29,0.0,-999.0,88,-99.99,,,-99.99,,2013-05-29 05:11:00,
2013-05-28 22:22:00,49.0,46.0,30.07,NNE,29,0.0,-999.0,89,-99.99,,,-99.99,,2013-05-29 05:22:00,
2013-05-28 22:32:00,48.0,45.0,30.08,NNE,29,0.0,-999.0,90,-99.99,,,-99.99,,2013-05-29 05:32:00,
2013-05-28 22:41:00,48.0,45.0,30.08,NNE,29,0.0,-999.0,90,-99.99,,,-99.99,,2013-05-29 05:41:00,
2013-05-28 22:52:00,48.0,45.0,30.09,NNE,29,0.0,-999.0,91,-99.99,,,-99.99,,2013-05-29 05:52:00,
2013-05-28 23:01:00,48.0,45.0,30.09,NNE,29,0.0,-999.0,91,-99.99,,,-99.99,,2013-05-29 06:01:00,
2013-05-28 23:11:00,48.0,45.0,30.09,NNE,29,0.0,-999.0,91,-99.99,,,-99.99,,2013-05-29 06:11:00,
2013-05-28 23:21:00,47.0,45.0,30.06,NNE,29,0.0,-999.0,91,-99.99,,,-99.99,,2013-05-29 06:21:00,
2013-05-28 23:31:00,47.0,45.0,30.06,NNE,29,0.0,-999.0,91,-99.99,,,-99.99,,2013-05-29 06:31:00,
2013-05-28 23:41:00,47.0,45.0,30.06,NNE,29,0.0,-999.0,91,-99.99,,,-99.99,,2013-05-29 06:41:00,
2013-05-28 23:52:00,47.0,44.0,30.07,NNE,29,0.0,-999.0,89,-99.99,,,-99.99,,2013-05-29 06:52:00,